Time,TemperatureF,DewpointF,PressureIn,WindDirection,WindDirectionDegrees,WindSpeedMPH,WindSpeedGustMPH,Humidity,HourlyPrecipIn,Conditions,Clouds,dailyrainin,SoftwareType,DateUTC
2013-11-08 00:02:00,23.8,18.5,30.41,NNW,343,1.0,2.0,80,0.00,,---,0.01,VWS V14.01,2013-11-08 07:02:00,
2013-11-08 00:07:00,24.1,18.2,30.41,NNW,343,0.0,0.0,78,0.00,,---,0.00,VWS V14.01,2013-11-08 07:07:00,
2013-11-08 00:12:00,24.1,18.0,30.41,NNW,343,0.0,0.0,77,0.00,,---,0.00,VWS V14.01,2013-11-08 07:12:00,
2013-11-08 00:17:00,24.0,17.5,30.41,NNW,343,0.0,0.0,76,0.00,,---,0.00,VWS V14.01,2013-11-08 07:17:00,
2013-11-08 00:22:00,23.8,17.4,30.40,NNW,343,1.0,1.0,76,0.00,,---,0.00,VWS V14.01,2013-11-08 07:22:00,
2013-11-08 00:27:00,23.3,16.9,30.40,NNW,343,0.0,0.0,76,0.00,,---,0.00,VWS V14.01,2013-11-08 07:27:00,
2013-11-08 00:32:00,22.9,16.8,30.40,NNW,343,0.0,0.0,77,0.00,,---,0.00,VWS V14.01,2013-11-08 07:32:00,
2013-11-08 00:37:00,22.6,16.8,30.40,NNW,343,0.0,0.0,78,0.00,,---,0.00,VWS V14.01,2013-11-08 07:37:00,
2013-11-08 00:42:00,22.4,16.6,30.40,NNW,343,4.0,5.0,78,0.00,,---,0.00,VWS V14.01,2013-11-08 07:42:00,
2013-11-08 00:47:00,22.4,16.6,30.40,NNW,343,0.0,0.0,78,0.00,,---,0.00,VWS V14.01,2013-11-08 07:47:00,
2013-11-08 00:52:00,22.1,16.3,30.40,NNW,343,3.0,3.0,78,0.00,,---,0.00,VWS V14.01,2013-11-08 07:52:00,
2013-11-08 00:57:00,21.8,16.3,30.40,NNW,343,1.0,1.0,79,0.00,,---,0.00,VWS V14.01,2013-11-08 07:57:00,
2013-11-08 01:02:00,21.7,16.5,30.40,NNW,343,2.0,2.0,80,0.00,,---,0.00,VWS V14.01,2013-11-08 08:02:00,
2013-11-08 01:07:00,21.5,16.6,30.40,NNW,343,0.0,0.0,81,0.00,,---,0.00,VWS V14.01,2013-11-08 08:07:00,
2013-11-08 01:12:00,21.6,17.0,30.40,NNW,343,0.0,0.0,82,0.00,,---,0.00,VWS V14.01,2013-11-08 08:12:00,
2013-11-08 01:17:00,21.7,17.1,30.39,NNW,343,0.0,0.0,82,0.00,,---,0.00,VWS V14.01,2013-11-08 08:17:00,
2013-11-08 01:22:00,21.7,17.1,30.39,NNW,343,0.0,0.0,82,0.00,,---,0.00,VWS V14.01,2013-11-08 08:22:00,
2013-11-08 01:27:00,21.6,17.0,30.39,NNW,343,0.0,0.0,82,0.00,,---,0.00,VWS V14.01,2013-11-08 08:27:00,
2013-11-08 01:32:00,21.6,17.0,30.39,NNW,343,0.0,0.0,82,0.00,,---,0.00,VWS V14.01,2013-11-08 08:32:00,
2013-11-08 01:38:00,21.6,17.0,30.38,NNW,343,1.0,2.0,82,0.00,,---,0.00,VWS V14.01,2013-11-08 08:38:00,
2013-11-08 01:43:00,21.6,17.0,30.38,NNW,343,0.0,0.0,82,0.00,,---,0.00,VWS V14.01,2013-11-08 08:43:00,
2013-11-08 01:48:00,21.4,16.5,30.38,NNW,343,0.0,0.0,81,0.00,,---,0.00,VWS V14.01,2013-11-08 08:48:00,
2013-11-08 01:53:00,21.2,16.6,30.38,NNW,343,0.0,0.0,82,0.00,,---,0.00,VWS V14.01,2013-11-08 08:53:00,
2013-11-08 01:58:00,20.8,16.2,30.38,NNW,343,0.0,0.0,82,0.00,,---,0.00,VWS V14.01,2013-11-08 08:58:00,
2013-11-08 02:03:00,20.7,16.4,30.38,NNW,343,1.0,1.0,83,0.00,,---,0.00,VWS V14.01,2013-11-08 09:03:00,
2013-11-08 02:08:00,20.6,16.5,30.37,NNW,343,0.0,0.0,84,0.00,,---,0.00,VWS V14.01,2013-11-08 09:08:00,
2013-11-08 02:13:00,20.7,16.6,30.37,NNW,343,0.0,1.0,84,0.00,,---,0.00,VWS V14.01,2013-11-08 09:13:00,
2013-11-08 02:18:00,20.7,16.6,30.37,NNW,343,0.0,0.0,84,0.00,,---,0.00,VWS V14.01,2013-11-08 09:18:00,
2013-11-08 02:23:00,20.9,16.8,30.37,NNW,343,0.0,2.0,84,0.00,,---,0.00,VWS V14.01,2013-11-08 09:23:00,
2013-11-08 02:28:00,20.9,16.6,30.36,NNW,343,0.0,3.0,83,0.00,,---,0.00,VWS V14.01,2013-11-08 09:28:00,
2013-11-08 02:33:00,20.9,16.6,30.36,NNW,343,3.0,3.0,83,0.00,,---,0.00,VWS V14.01,2013-11-08 09:33:00,
2013-11-08 02:38:00,21.0,16.7,30.36,NNW,343,1.0,3.0,83,0.00,,---,0.00,VWS V14.01,2013-11-08 09:38:00,
2013-11-08 02:43:00,21.2,16.9,30.35,NNW,343,2.0,3.0,83,0.00,,---,0.00,VWS V14.01,2013-11-08 09:43:00,
2013-11-08 02:48:00,21.5,16.9,30.35,NNW,343,2.0,2.0,82,0.00,,---,0.00,VWS V14.01,2013-11-08 09:48:00,
2013-11-08 02:53:00,21.1,16.2,30.35,NNW,343,2.0,2.0,81,0.00,,---,0.00,VWS V14.01,2013-11-08 09:53:00,
2013-11-08 02:58:00,20.7,16.1,30.35,NNW,343,0.0,0.0,82,0.00,,---,0.00,VWS V14.01,2013-11-08 09:58:00,
2013-11-08 03:03:00,20.5,15.9,30.35,NNW,343,3.0,3.0,82,0.00,,---,0.00,VWS V14.01,2013-11-08 10:03:00,
2013-11-08 03:08:00,20.6,16.3,30.34,NNW,343,0.0,0.0,83,0.00,,---,0.00,VWS V14.01,2013-11-08 10:08:00,
2013-11-08 03:13:00,20.5,16.2,30.34,NNW,343,0.0,0.0,83,0.00,,---,0.00,VWS V14.01,2013-11-08 10:13:00,
2013-11-08 03:18:00,20.6,16.3,30.34,NNW,343,0.0,0.0,83,0.00,,---,0.00,VWS V14.01,2013-11-08 10:18:00,
2013-11-08 03:23:00,20.8,16.2,30.34,NNW,343,0.0,0.0,82,0.00,,---,0.00,VWS V14.01,2013-11-08 10:23:00,
2013-11-08 03:28:00,20.8,15.9,30.33,NNW,343,0.0,2.0,81,0.00,,---,0.00,VWS V14.01,2013-11-08 10:28:00,
2013-11-08 03:33:00,20.9,16.3,30.33,NNW,343,2.0,3.0,82,0.00,,---,0.00,VWS V14.01,2013-11-08 10:33:00,
2013-11-08 03:38:00,20.8,15.9,30.33,NNW,343,1.0,1.0,81,0.00,,---,0.00,VWS V14.01,2013-11-08 10:38:00,
2013-11-08 03:43:00,20.7,16.1,30.33,NNW,343,0.0,0.0,82,0.00,,---,0.00,VWS V14.01,2013-11-08 10:43:00,
2013-11-08 03:48:00,20.4,15.5,30.33,NNW,343,0.0,0.0,81,0.00,,---,0.00,VWS V14.01,2013-11-08 10:48:00,
2013-11-08 03:53:00,19.8,14.6,30.33,NNW,343,1.0,2.0,80,0.00,,---,0.00,VWS V14.01,2013-11-08 10:53:00,
2013-11-08 03:58:00,18.9,14.0,30.33,NNW,343,3.0,3.0,81,0.00,,---,0.00,VWS V14.01,2013-11-08 10:58:00,
2013-11-08 04:03:00,18.5,14.2,30.33,NNW,343,3.0,3.0,83,0.00,,---,0.00,VWS V14.01,2013-11-08 11:03:00,
2013-11-08 04:08:00,19.1,15.3,30.33,NNW,343,1.0,2.0,85,0.00,,---,0.00,VWS V14.01,2013-11-08 11:08:00,
2013-11-08 04:13:00,19.6,15.6,30.33,NNW,343,3.0,3.0,84,0.00,,---,0.00,VWS V14.01,2013-11-08 11:13:00,
2013-11-08 04:18:00,19.6,15.3,30.32,NNW,343,0.0,0.0,83,0.00,,---,0.00,VWS V14.01,2013-11-08 11:18:00,
2013-11-08 04:23:00,19.0,14.4,30.32,NNW,343,3.0,4.0,82,0.00,,---,0.00,VWS V14.01,2013-11-08 11:23:00,
2013-11-08 04:28:00,18.9,14.6,30.33,NNW,343,5.0,5.0,83,0.00,,---,0.00,VWS V14.01,2013-11-08 11:28:00,
2013-11-08 04:33:00,19.1,15.1,30.33,NNW,343,8.0,8.0,84,0.00,,---,0.00,VWS V14.01,2013-11-08 11:33:00,
2013-11-08 04:38:00,19.7,15.1,30.33,NNW,343,6.0,6.0,82,0.00,,---,0.00,VWS V14.01,2013-11-08 11:38:00,
2013-11-08 04:43:00,19.3,14.7,30.33,West,267,2.0,2.0,82,0.00,,---,0.00,VWS V14.01,2013-11-08 11:43:00,
2013-11-08 04:48:00,18.9,14.3,30.33,West,268,2.0,4.0,82,0.00,,---,0.00,VWS V14.01,2013-11-08 11:48:00,
2013-11-08 04:53:00,18.7,14.4,30.33,West,265,0.0,0.0,83,0.00,,---,0.00,VWS V14.01,2013-11-08 11:53:00,
2013-11-08 04:58:00,18.5,14.2,30.33,West,265,0.0,0.0,83,0.00,,---,0.00,VWS V14.01,2013-11-08 11:58:00,
2013-11-08 05:04:00,18.6,14.3,30.34,West,267,4.0,4.0,83,0.00,,---,0.00,VWS V14.01,2013-11-08 12:04:00,
2013-11-08 05:09:00,19.2,15.2,30.33,WSW,250,6.0,6.0,84,0.00,,---,0.00,VWS V14.01,2013-11-08 12:09:00,
2013-11-08 05:14:00,19.2,14.6,30.33,WSW,244,0.0,0.0,82,0.00,,---,0.00,VWS V14.01,2013-11-08 12:14:00,
2013-11-08 05:19:00,18.7,13.9,30.33,WSW,244,0.0,0.0,81,0.00,,---,0.00,VWS V14.01,2013-11-08 12:19:00,
2013-11-08 05:24:00,18.5,14.2,30.33,WSW,251,0.0,0.0,83,0.00,,---,0.00,VWS V14.01,2013-11-08 12:24:00,
2013-11-08 05:29:00,19.0,15.0,30.33,WSW,252,5.0,5.0,84,0.00,,---,0.00,VWS V14.01,2013-11-08 12:29:00,
2013-11-08 05:34:00,19.3,14.4,30.33,NNE,30,6.0,6.0,81,0.00,,---,0.00,VWS V14.01,2013-11-08 12:34:00,
2013-11-08 05:39:00,19.0,14.1,30.33,North,355,2.0,5.0,81,0.00,,---,0.00,VWS V14.01,2013-11-08 12:39:00,
2013-11-08 05:44:00,18.9,14.3,30.33,North,351,0.0,0.0,82,0.00,,---,0.00,VWS V14.01,2013-11-08 12:44:00,
2013-11-08 05:49:00,18.7,14.1,30.33,North,351,0.0,0.0,82,0.00,,---,0.00,VWS V14.01,2013-11-08 12:49:00,
2013-11-08 05:54:00,18.5,13.9,30.33,North,355,4.0,4.0,82,0.00,,---,0.00,VWS V14.01,2013-11-08 12:54:00,
2013-11-08 05:59:00,18.4,13.8,30.33,North,355,0.0,2.0,82,0.00,,---,0.00,VWS V14.01,2013-11-08 12:59:00,
2013-11-08 06:04:00,18.0,12.9,30.33,SSW,211,1.0,4.0,80,0.00,,---,0.00,VWS V14.01,2013-11-08 13:04:00,
2013-11-08 06:09:00,17.7,13.4,30.33,SSW,211,0.0,0.0,83,0.00,,---,0.00,VWS V14.01,2013-11-08 13:09:00,
2013-11-08 06:14:00,17.9,14.2,30.33,SW,235,2.0,5.0,85,0.00,,---,0.00,VWS V14.01,2013-11-08 13:14:00,
2013-11-08 06:19:00,18.3,14.6,30.33,SW,235,0.0,0.0,85,0.00,,---,0.00,VWS V14.01,2013-11-08 13:19:00,
2013-11-08 06:24:00,18.4,14.4,30.33,SW,235,1.0,2.0,84,0.00,,---,0.00,VWS V14.01,2013-11-08 13:24:00,
2013-11-08 06:29:00,17.9,13.4,30.33,SW,235,2.0,3.0,82,0.00,,---,0.00,VWS V14.01,2013-11-08 13:29:00,
2013-11-08 06:34:00,17.6,13.6,30.34,SW,235,0.0,2.0,84,0.00,,---,0.00,VWS V14.01,2013-11-08 13:34:00,
2013-11-08 06:39:00,17.5,13.5,30.33,SW,235,0.0,0.0,84,0.00,,---,0.00,VWS V14.01,2013-11-08 13:39:00,
2013-11-08 06:44:00,17.5,13.8,30.33,SW,235,0.0,0.0,85,0.00,,---,0.00,VWS V14.01,2013-11-08 13:44:00,
2013-11-08 06:49:00,17.4,13.4,30.33,SW,235,0.0,0.0,84,0.00,,---,0.00,VWS V14.01,2013-11-08 13:49:00,
2013-11-08 06:54:00,17.4,13.4,30.33,SW,235,2.0,2.0,84,0.00,,---,0.00,VWS V14.01,2013-11-08 13:54:00,
2013-11-08 06:59:00,17.5,13.8,30.34,SW,235,0.0,0.0,85,0.00,,---,0.00,VWS V14.01,2013-11-08 13:59:00,
2013-11-08 07:04:00,17.6,13.9,30.34,SW,235,0.0,0.0,85,0.00,,---,0.00,VWS V14.01,2013-11-08 14:04:00,
2013-11-08 07:09:00,17.5,13.8,30.34,SW,235,0.0,0.0,85,0.00,,---,0.00,VWS V14.01,2013-11-08 14:09:00,
2013-11-08 07:14:00,18.7,14.7,30.34,SW,235,0.0,0.0,84,0.00,,---,0.00,VWS V14.01,2013-11-08 14:14:00,
2013-11-08 07:19:00,18.3,14.0,30.34,SW,235,0.0,0.0,83,0.00,,---,0.00,VWS V14.01,2013-11-08 14:19:00,
2013-11-08 07:24:00,18.3,14.6,30.34,SW,235,0.0,0.0,85,0.00,,---,0.00,VWS V14.01,2013-11-08 14:24:00,
2013-11-08 07:29:00,19.2,15.4,30.33,SW,235,0.0,0.0,85,0.00,,---,0.00,VWS V14.01,2013-11-08 14:29:00,
2013-11-08 07:34:00,18.7,15.2,30.33,SW,235,0.0,0.0,86,0.00,,---,0.00,VWS V14.01,2013-11-08 14:34:00,
2013-11-08 07:39:00,19.7,15.9,30.33,SW,235,0.0,1.0,85,0.00,,---,0.00,VWS V14.01,2013-11-08 14:39:00,
2013-11-08 07:44:00,20.6,17.1,30.33,SW,235,0.0,0.0,86,0.00,,---,0.00,VWS V14.01,2013-11-08 14:44:00,
2013-11-08 07:49:00,21.2,17.1,30.34,SW,235,0.0,0.0,84,0.00,,---,0.00,VWS V14.01,2013-11-08 14:49:00,
2013-11-08 07:54:00,22.1,17.7,30.34,SW,235,3.0,3.0,83,0.00,,---,0.00,VWS V14.01,2013-11-08 14:54:00,
2013-11-08 07:59:00,22.1,17.7,30.34,SW,235,2.0,2.0,83,0.00,,---,0.00,VWS V14.01,2013-11-08 14:59:00,
2013-11-08 08:04:00,22.7,18.6,30.33,SW,235,4.0,4.0,84,0.00,,---,0.00,VWS V14.01,2013-11-08 15:04:00,
2013-11-08 08:09:00,25.1,20.7,30.34,SW,235,0.0,2.0,83,0.00,,---,0.00,VWS V14.01,2013-11-08 15:09:00,
2013-11-08 08:14:00,26.0,20.4,30.33,SSW,198,6.0,7.0,79,0.00,,---,0.00,VWS V14.01,2013-11-08 15:14:00,
2013-11-08 08:20:00,24.9,19.3,30.32,SSW,192,1.0,2.0,79,0.00,,---,0.00,VWS V14.01,2013-11-08 15:20:00,
2013-11-08 08:25:00,25.1,19.8,30.32,SSW,192,2.0,2.0,80,0.00,,---,0.00,VWS V14.01,2013-11-08 15:25:00,
2013-11-08 08:30:00,26.6,22.1,30.32,ESE,111,0.0,0.0,83,0.00,,---,0.00,VWS V14.01,2013-11-08 15:30:00,
2013-11-08 08:35:00,27.2,20.3,30.32,ESE,111,0.0,3.0,75,0.00,,---,0.00,VWS V14.01,2013-11-08 15:35:00,
2013-11-08 08:40:00,28.0,21.7,30.32,ESE,110,4.0,5.0,77,0.00,,---,0.00,VWS V14.01,2013-11-08 15:40:00,
2013-11-08 08:45:00,29.7,23.1,30.32,ESE,111,0.0,2.0,76,0.00,,---,0.00,VWS V14.01,2013-11-08 15:45:00,
2013-11-08 08:50:00,29.4,22.5,30.32,SW,223,0.0,0.0,75,0.00,,---,0.00,VWS V14.01,2013-11-08 15:50:00,
2013-11-08 08:55:00,29.3,21.1,30.32,SW,223,0.0,0.0,71,0.00,,---,0.00,VWS V14.01,2013-11-08 15:55:00,
2013-11-08 09:00:00,30.9,21.6,30.32,SW,223,0.0,3.0,68,0.00,,---,0.00,VWS V14.01,2013-11-08 16:00:00,
2013-11-08 09:05:00,31.7,22.4,30.32,SW,223,0.0,0.0,68,0.00,,---,0.00,VWS V14.01,2013-11-08 16:05:00,
2013-11-08 09:10:00,32.3,22.2,30.32,SW,224,4.0,4.0,66,0.00,,---,0.00,VWS V14.01,2013-11-08 16:10:00,
2013-11-08 09:15:00,33.2,23.1,30.31,SW,225,0.0,1.0,66,0.00,,---,0.00,VWS V14.01,2013-11-08 16:15:00,
2013-11-08 09:20:00,34.7,21.9,30.31,WSW,240,4.0,6.0,59,0.00,,---,0.00,VWS V14.01,2013-11-08 16:20:00,
2013-11-08 09:25:00,34.6,21.4,30.31,WSW,241,3.0,3.0,58,0.00,,---,0.00,VWS V14.01,2013-11-08 16:25:00,
2013-11-08 09:30:00,37.0,22.8,30.30,WSW,241,2.0,4.0,56,0.00,,---,0.00,VWS V14.01,2013-11-08 16:30:00,
2013-11-08 09:35:00,38.0,22.9,30.30,WSW,241,0.0,2.0,54,0.00,,---,0.00,VWS V14.01,2013-11-08 16:35:00,
2013-11-08 09:40:00,39.8,22.2,30.29,WSW,241,2.0,3.0,49,0.00,,---,0.00,VWS V14.01,2013-11-08 16:40:00,
2013-11-08 09:45:00,40.6,20.9,30.29,WSW,241,0.0,1.0,45,0.00,,---,0.00,VWS V14.01,2013-11-08 16:45:00,
2013-11-08 09:50:00,41.2,21.0,30.28,WSW,241,0.0,0.0,44,0.00,,---,0.00,VWS V14.01,2013-11-08 16:50:00,
2013-11-08 09:55:00,41.7,17.4,30.28,WSW,241,0.0,1.0,37,0.00,,---,0.00,VWS V14.01,2013-11-08 16:55:00,
2013-11-08 10:00:00,42.6,16.2,30.28,WSW,238,0.0,3.0,34,0.00,,---,0.00,VWS V14.01,2013-11-08 17:00:00,
2013-11-08 10:05:00,43.2,17.4,30.28,SW,220,7.0,8.0,35,0.00,,---,0.00,VWS V14.01,2013-11-08 17:05:00,
2013-11-08 10:10:00,43.1,16.0,30.28,SW,219,3.0,3.0,33,0.00,,---,0.00,VWS V14.01,2013-11-08 17:10:00,
2013-11-08 10:15:00,43.3,15.4,30.27,SW,227,4.0,4.0,32,0.00,,---,0.00,VWS V14.01,2013-11-08 17:15:00,
2013-11-08 10:20:00,42.9,15.1,30.26,SW,226,0.0,0.0,32,0.00,,---,0.00,VWS V14.01,2013-11-08 17:20:00,
2013-11-08 10:25:00,43.0,15.9,30.26,WNW,290,3.0,4.0,33,0.00,,---,0.00,VWS V14.01,2013-11-08 17:25:00,
2013-11-08 10:30:00,43.6,15.7,30.26,WNW,287,3.0,3.0,32,0.00,,---,0.00,VWS V14.01,2013-11-08 17:30:00,
2013-11-08 10:35:00,44.1,16.1,30.26,West,265,7.0,7.0,32,0.00,,---,0.00,VWS V14.01,2013-11-08 17:35:00,
2013-11-08 10:40:00,44.9,16.8,30.26,NNW,327,5.0,8.0,32,0.00,,---,0.00,VWS V14.01,2013-11-08 17:40:00,
2013-11-08 10:45:00,44.6,16.6,30.26,NW,318,7.0,9.0,32,0.01,,---,0.01,VWS V14.01,2013-11-08 17:45:00,
2013-11-08 10:50:00,44.8,16.0,30.25,WNW,294,11.0,12.0,31,0.01,,---,0.01,VWS V14.01,2013-11-08 17:50:00,
2013-11-08 10:55:00,45.1,14.8,30.25,WSW,252,2.0,2.0,29,0.01,,---,0.01,VWS V14.01,2013-11-08 17:55:00,
2013-11-08 11:00:00,44.5,15.8,30.25,NNW,332,4.0,7.0,31,0.01,,---,0.01,VWS V14.01,2013-11-08 18:00:00,
2013-11-08 11:05:00,45.7,16.1,30.24,West,273,6.0,9.0,30,0.01,,---,0.01,VWS V14.01,2013-11-08 18:05:00,
2013-11-08 11:10:00,44.5,15.0,30.24,North,9,8.0,8.0,30,0.01,,---,0.01,VWS V14.01,2013-11-08 18:10:00,
2013-11-08 11:15:00,45.7,18.3,30.23,WNW,283,9.0,11.0,33,0.01,,---,0.01,VWS V14.01,2013-11-08 18:15:00,
2013-11-08 11:20:00,45.1,15.5,30.23,NW,315,11.0,13.0,30,0.01,,---,0.01,VWS V14.01,2013-11-08 18:20:00,
2013-11-08 11:25:00,44.4,16.4,30.22,NNW,331,13.0,13.0,32,0.01,,---,0.01,VWS V14.01,2013-11-08 18:25:00,
2013-11-08 11:30:00,44.6,15.9,30.22,WNW,302,9.0,12.0,31,0.01,,---,0.01,VWS V14.01,2013-11-08 18:30:00,
2013-11-08 11:36:00,45.3,18.6,30.22,West,267,11.0,13.0,34,0.01,,---,0.01,VWS V14.01,2013-11-08 18:36:00,
2013-11-08 11:41:00,46.0,17.1,30.22,West,263,9.0,9.0,31,0.01,,---,0.01,VWS V14.01,2013-11-08 18:41:00,
2013-11-08 11:46:00,45.6,17.5,30.21,NNW,331,12.0,13.0,32,0.00,,---,0.01,VWS V14.01,2013-11-08 18:46:00,
2013-11-08 11:51:00,45.2,15.6,30.21,NNW,343,6.0,7.0,30,0.00,,---,0.01,VWS V14.01,2013-11-08 18:51:00,
2013-11-08 11:56:00,45.4,17.3,30.21,NNW,344,13.0,18.0,32,0.00,,---,0.01,VWS V14.01,2013-11-08 18:56:00,
2013-11-08 12:01:00,45.9,17.0,30.21,NW,320,13.0,13.0,31,0.00,,---,0.01,VWS V14.01,2013-11-08 19:01:00,
2013-11-08 12:06:00,45.5,15.9,30.20,NNW,339,7.0,12.0,30,0.00,,---,0.01,VWS V14.01,2013-11-08 19:06:00,
2013-11-08 12:11:00,45.4,15.8,30.20,NNW,334,14.0,14.0,30,0.00,,---,0.01,VWS V14.01,2013-11-08 19:11:00,
2013-11-08 12:16:00,45.6,15.2,30.20,West,275,4.0,4.0,29,0.00,,---,0.01,VWS V14.01,2013-11-08 19:16:00,
2013-11-08 12:21:00,47.3,15.9,30.20,WSW,251,9.0,9.0,28,0.00,,---,0.01,VWS V14.01,2013-11-08 19:21:00,
2013-11-08 12:26:00,46.5,16.8,30.19,NW,309,7.0,12.0,30,0.00,,---,0.01,VWS V14.01,2013-11-08 19:26:00,
2013-11-08 12:31:00,45.2,16.4,30.19,North,355,10.0,12.0,31,0.00,,---,0.01,VWS V14.01,2013-11-08 19:31:00,
2013-11-08 12:36:00,44.8,16.8,30.19,NNW,348,10.0,12.0,32,0.00,,---,0.01,VWS V14.01,2013-11-08 19:36:00,
2013-11-08 12:41:00,44.7,17.4,30.18,NNW,329,15.0,17.0,33,0.00,,---,0.01,VWS V14.01,2013-11-08 19:41:00,
2013-11-08 12:46:00,45.1,17.7,30.18,NW,322,12.0,12.0,33,0.00,,---,0.01,VWS V14.01,2013-11-08 19:46:00,
2013-11-08 12:51:00,45.7,17.5,30.18,NNW,327,14.0,16.0,32,0.00,,---,0.01,VWS V14.01,2013-11-08 19:51:00,
2013-11-08 12:56:00,45.5,17.4,30.17,NNW,344,18.0,18.0,32,0.00,,---,0.01,VWS V14.01,2013-11-08 19:56:00,
2013-11-08 13:01:00,46.0,19.2,30.17,NNW,342,17.0,17.0,34,0.00,,---,0.01,VWS V14.01,2013-11-08 20:01:00,
2013-11-08 13:06:00,46.2,19.4,30.17,NNW,331,13.0,15.0,34,0.00,,---,0.01,VWS V14.01,2013-11-08 20:06:00,
2013-11-08 13:11:00,46.2,17.2,30.17,North,355,12.0,15.0,31,0.00,,---,0.01,VWS V14.01,2013-11-08 20:11:00,
2013-11-08 13:16:00,46.6,18.3,30.17,NNW,331,12.0,15.0,32,0.00,,---,0.01,VWS V14.01,2013-11-08 20:16:00,
2013-11-08 13:21:00,45.9,17.0,30.17,NW,311,8.0,13.0,31,0.00,,---,0.01,VWS V14.01,2013-11-08 20:21:00,
2013-11-08 13:26:00,46.1,17.2,30.17,NW,318,13.0,15.0,31,0.00,,---,0.01,VWS V14.01,2013-11-08 20:26:00,
2013-11-08 13:31:00,46.9,17.1,30.17,NW,322,8.0,12.0,30,0.00,,---,0.01,VWS V14.01,2013-11-08 20:31:00,
2013-11-08 13:36:00,46.5,16.0,30.17,WNW,302,6.0,19.0,29,0.00,,---,0.01,VWS V14.01,2013-11-08 20:36:00,
2013-11-08 13:41:00,46.8,17.0,30.17,NNW,333,14.0,14.0,30,0.00,,---,0.01,VWS V14.01,2013-11-08 20:41:00,
2013-11-08 13:46:00,46.7,16.1,30.17,West,275,9.0,15.0,29,0.00,,---,0.01,VWS V14.01,2013-11-08 20:46:00,
2013-11-08 13:51:00,46.8,16.2,30.17,WNW,292,19.0,19.0,29,0.00,,---,0.01,VWS V14.01,2013-11-08 20:51:00,
2013-11-08 13:56:00,46.6,16.8,30.17,NNW,336,14.0,14.0,30,0.00,,---,0.01,VWS V14.01,2013-11-08 20:56:00,
2013-11-08 14:01:00,47.3,16.7,30.17,WNW,298,21.0,21.0,29,0.04,,---,0.05,VWS V14.01,2013-11-08 21:01:00,
2013-11-08 14:06:00,47.3,16.7,30.17,NW,315,15.0,17.0,29,0.04,,---,0.05,VWS V14.01,2013-11-08 21:06:00,
2013-11-08 14:11:00,47.8,17.1,30.16,NNW,329,14.0,20.0,29,0.04,,---,0.05,VWS V14.01,2013-11-08 21:11:00,
2013-11-08 14:16:00,47.8,16.3,30.16,WNW,287,12.0,23.0,28,0.07,,---,0.08,VWS V14.01,2013-11-08 21:16:00,
2013-11-08 14:21:00,47.2,15.8,30.16,WNW,298,12.0,22.0,28,0.12,,---,0.13,VWS V14.01,2013-11-08 21:21:00,
2013-11-08 14:26:00,47.1,16.5,30.16,WNW,292,19.0,19.0,29,0.12,,---,0.13,VWS V14.01,2013-11-08 21:26:00,
2013-11-08 14:31:00,47.0,16.4,30.16,WNW,287,18.0,18.0,29,0.18,,---,0.19,VWS V14.01,2013-11-08 21:31:00,
2013-11-08 14:36:00,47.2,18.1,30.16,NW,323,13.0,14.0,31,0.22,,---,0.23,VWS V14.01,2013-11-08 21:36:00,
2013-11-08 14:41:00,46.2,16.5,30.16,NNW,337,13.0,14.0,30,0.22,,---,0.23,VWS V14.01,2013-11-08 21:41:00,
2013-11-08 14:46:00,46.2,18.7,30.16,West,273,9.0,10.0,33,0.22,,---,0.23,VWS V14.01,2013-11-08 21:46:00,
2013-11-08 14:51:00,47.1,16.5,30.16,West,267,14.0,14.0,29,0.22,,---,0.23,VWS V14.01,2013-11-08 21:51:00,
2013-11-08 14:56:00,47.0,16.4,30.16,West,274,16.0,16.0,29,0.22,,---,0.23,VWS V14.01,2013-11-08 21:56:00,
2013-11-08 15:01:00,46.8,16.2,30.16,West,264,18.0,19.0,29,0.19,,---,0.24,VWS V14.01,2013-11-08 22:01:00,
2013-11-08 15:06:00,46.5,16.8,30.16,WNW,290,14.0,16.0,30,0.20,,---,0.25,VWS V14.01,2013-11-08 22:06:00,
2013-11-08 15:11:00,46.6,16.8,30.16,WNW,303,15.0,18.0,30,0.24,,---,0.29,VWS V14.01,2013-11-08 22:11:00,
2013-11-08 15:16:00,46.6,16.8,30.16,West,273,13.0,15.0,30,0.23,,---,0.31,VWS V14.01,2013-11-08 22:16:00,
2013-11-08 15:21:00,46.6,16.8,30.16,WNW,282,21.0,21.0,30,0.20,,---,0.33,VWS V14.01,2013-11-08 22:21:00,
2013-11-08 15:26:00,45.9,17.0,30.16,West,275,9.0,16.0,31,0.21,,---,0.34,VWS V14.01,2013-11-08 22:26:00,
2013-11-08 15:32:00,45.7,16.8,30.16,NW,311,11.0,19.0,31,0.16,,---,0.35,VWS V14.01,2013-11-08 22:32:00,
2013-11-08 15:37:00,45.9,17.7,30.17,WNW,289,8.0,13.0,32,0.12,,---,0.35,VWS V14.01,2013-11-08 22:37:00,
2013-11-08 15:42:00,45.8,16.9,30.16,NW,306,14.0,18.0,31,0.12,,---,0.35,VWS V14.01,2013-11-08 22:42:00,
2013-11-08 15:47:00,45.6,16.7,30.16,WNW,291,8.0,9.0,31,0.12,,---,0.35,VWS V14.01,2013-11-08 22:47:00,
2013-11-08 15:52:00,45.6,17.5,30.16,WNW,284,11.0,14.0,32,0.12,,---,0.35,VWS V14.01,2013-11-08 22:52:00,
2013-11-08 15:57:00,44.9,16.8,30.16,NW,323,10.0,14.0,32,0.14,,---,0.37,VWS V14.01,2013-11-08 22:57:00,
2013-11-08 16:02:00,44.6,16.6,30.16,NW,307,16.0,16.0,32,0.17,,---,0.40,VWS V14.01,2013-11-08 23:02:00,
2013-11-08 16:07:00,44.2,16.9,30.16,NW,319,17.0,17.0,33,0.15,,---,0.40,VWS V14.01,2013-11-08 23:07:00,
2013-11-08 16:12:00,44.1,16.1,30.16,WNW,293,15.0,15.0,32,0.11,,---,0.40,VWS V14.01,2013-11-08 23:12:00,
2013-11-08 16:17:00,43.3,16.1,30.16,WNW,303,9.0,9.0,33,0.09,,---,0.40,VWS V14.01,2013-11-08 23:17:00,
2013-11-08 16:22:00,42.7,18.9,30.16,North,349,11.0,13.0,38,0.07,,---,0.40,VWS V14.01,2013-11-08 23:22:00,
2013-11-08 16:27:00,42.7,16.3,30.16,WNW,297,13.0,15.0,34,0.07,,---,0.40,VWS V14.01,2013-11-08 23:27:00,
2013-11-08 16:32:00,42.6,16.9,30.16,NW,319,8.0,14.0,35,0.05,,---,0.40,VWS V14.01,2013-11-08 23:32:00,
2013-11-08 16:37:00,42.2,17.2,30.17,NW,324,9.0,12.0,36,0.05,,---,0.40,VWS V14.01,2013-11-08 23:37:00,
2013-11-08 16:42:00,41.6,16.6,30.16,North,355,10.0,12.0,36,0.05,,---,0.40,VWS V14.01,2013-11-08 23:42:00,
2013-11-08 16:47:00,40.8,17.2,30.16,North,5,8.0,8.0,38,0.05,,---,0.40,VWS V14.01,2013-11-08 23:47:00,
2013-11-08 16:52:00,40.2,17.2,30.16,NNW,348,11.0,11.0,39,0.05,,---,0.40,VWS V14.01,2013-11-08 23:52:00,
2013-11-08 16:57:00,39.4,17.1,30.17,North,349,9.0,10.0,40,0.03,,---,0.40,VWS V14.01,2013-11-08 23:57:00,
2013-11-08 17:02:00,39.1,17.4,30.17,North,355,8.0,10.0,41,0.00,,---,0.40,VWS V14.01,2013-11-09 00:02:00,
2013-11-08 17:07:00,38.8,17.1,30.17,North,5,10.0,11.0,41,0.00,,---,0.40,VWS V14.01,2013-11-09 00:07:00,
2013-11-08 17:12:00,38.8,17.1,30.17,North,360,10.0,11.0,41,0.00,,---,0.40,VWS V14.01,2013-11-09 00:12:00,
2013-11-08 17:17:00,38.9,17.2,30.17,North,9,10.0,12.0,41,0.00,,---,0.40,VWS V14.01,2013-11-09 00:17:00,
2013-11-08 17:22:00,39.1,16.2,30.17,North,350,10.0,10.0,39,0.00,,---,0.40,VWS V14.01,2013-11-09 00:22:00,
2013-11-08 17:27:00,39.1,16.8,30.17,NNW,341,4.0,6.0,40,0.00,,---,0.40,VWS V14.01,2013-11-09 00:27:00,
2013-11-08 17:32:00,39.1,16.8,30.18,North,355,8.0,8.0,40,0.00,,---,0.40,VWS V14.01,2013-11-09 00:32:00,
2013-11-08 17:37:00,38.9,16.6,30.18,North,5,9.0,9.0,40,0.00,,---,0.40,VWS V14.01,2013-11-09 00:37:00,
2013-11-08 17:42:00,38.7,17.0,30.18,North,360,7.0,7.0,41,0.00,,---,0.40,VWS V14.01,2013-11-09 00:42:00,
2013-11-08 17:47:00,38.8,16.6,30.18,North,360,8.0,8.0,40,0.00,,---,0.40,VWS V14.01,2013-11-09 00:47:00,
2013-11-08 17:52:00,38.6,17.0,30.18,North,360,10.0,11.0,41,0.00,,---,0.40,VWS V14.01,2013-11-09 00:52:00,
2013-11-08 17:57:00,38.8,17.1,30.19,NNW,340,3.0,3.0,41,0.00,,---,0.40,VWS V14.01,2013-11-09 00:57:00,
2013-11-08 18:02:00,38.7,16.5,30.19,NNE,16,5.0,7.0,40,0.00,,---,0.40,VWS V14.01,2013-11-09 01:02:00,
2013-11-08 18:07:00,38.3,16.7,30.19,North,355,7.0,8.0,41,0.00,,---,0.40,VWS V14.01,2013-11-09 01:07:00,
2013-11-08 18:12:00,38.0,17.0,30.19,North,355,6.0,6.0,42,0.00,,---,0.40,VWS V14.01,2013-11-09 01:12:00,
2013-11-08 18:17:00,37.7,16.7,30.19,NNE,30,7.0,7.0,42,0.00,,---,0.40,VWS V14.01,2013-11-09 01:17:00,
2013-11-08 18:22:00,37.8,17.3,30.19,NNE,16,7.0,7.0,43,0.00,,---,0.40,VWS V14.01,2013-11-09 01:22:00,
2013-11-08 18:27:00,37.6,17.1,30.20,NNE,15,6.0,6.0,43,0.00,,---,0.40,VWS V14.01,2013-11-09 01:27:00,
2013-11-08 18:32:00,36.8,17.0,30.20,North,355,6.0,6.0,44,0.00,,---,0.40,VWS V14.01,2013-11-09 01:32:00,
2013-11-08 18:37:00,35.8,18.0,30.20,North,355,0.0,0.0,48,0.00,,---,0.40,VWS V14.01,2013-11-09 01:37:00,
2013-11-08 18:42:00,34.8,17.1,30.20,North,5,1.0,1.0,48,0.00,,---,0.40,VWS V14.01,2013-11-09 01:42:00,
2013-11-08 18:47:00,33.9,16.8,30.20,North,5,0.0,0.0,49,0.00,,---,0.40,VWS V14.01,2013-11-09 01:47:00,
2013-11-08 18:52:00,33.5,16.9,30.20,North,5,0.0,0.0,50,0.00,,---,0.40,VWS V14.01,2013-11-09 01:52:00,
2013-11-08 18:57:00,33.3,16.7,30.20,North,5,2.0,2.0,50,0.00,,---,0.40,VWS V14.01,2013-11-09 01:57:00,
2013-11-08 19:02:00,33.5,16.9,30.21,North,5,1.0,2.0,50,0.00,,---,0.40,VWS V14.01,2013-11-09 02:02:00,
2013-11-08 19:08:00,33.4,17.2,30.21,North,5,0.0,0.0,51,0.00,,---,0.40,VWS V14.01,2013-11-09 02:08:00,
2013-11-08 19:13:00,33.3,17.1,30.21,North,5,3.0,4.0,51,0.00,,---,0.40,VWS V14.01,2013-11-09 02:13:00,
2013-11-08 19:18:00,32.4,17.6,30.21,North,360,6.0,7.0,54,0.00,,---,0.40,VWS V14.01,2013-11-09 02:18:00,
2013-11-08 19:23:00,31.2,17.8,30.21,North,355,8.0,9.0,57,0.00,,---,0.40,VWS V14.01,2013-11-09 02:23:00,
2013-11-08 19:28:00,30.6,18.0,30.21,North,349,8.0,9.0,59,0.00,,---,0.40,VWS V14.01,2013-11-09 02:28:00,
2013-11-08 19:33:00,30.3,18.1,30.21,North,349,2.0,3.0,60,0.00,,---,0.40,VWS V14.01,2013-11-09 02:33:00,
2013-11-08 19:38:00,30.2,18.0,30.21,North,349,6.0,8.0,60,0.00,,---,0.40,VWS V14.01,2013-11-09 02:38:00,
2013-11-08 19:43:00,30.0,18.2,30.21,North,349,4.0,4.0,61,0.00,,---,0.40,VWS V14.01,2013-11-09 02:43:00,
2013-11-08 19:48:00,30.1,18.3,30.21,North,349,4.0,4.0,61,0.00,,---,0.40,VWS V14.01,2013-11-09 02:48:00,
2013-11-08 19:53:00,30.1,17.5,30.22,NNW,348,4.0,4.0,59,0.00,,---,0.40,VWS V14.01,2013-11-09 02:53:00,
2013-11-08 19:58:00,30.4,18.2,30.21,NNW,348,6.0,6.0,60,0.00,,---,0.40,VWS V14.01,2013-11-09 02:58:00,
2013-11-08 20:03:00,30.8,18.2,30.22,NNW,347,6.0,8.0,59,0.00,,---,0.40,VWS V14.01,2013-11-09 03:03:00,
2013-11-08 20:08:00,30.6,18.4,30.22,NNW,347,6.0,6.0,60,0.00,,---,0.40,VWS V14.01,2013-11-09 03:08:00,
2013-11-08 20:13:00,29.9,18.5,30.22,NNW,346,5.0,6.0,62,0.00,,---,0.40,VWS V14.01,2013-11-09 03:13:00,
2013-11-08 20:18:00,29.4,18.4,30.22,NNW,344,7.0,7.0,63,0.00,,---,0.40,VWS V14.01,2013-11-09 03:18:00,
2013-11-08 20:23:00,29.3,18.6,30.22,NNW,346,10.0,11.0,64,0.00,,---,0.40,VWS V14.01,2013-11-09 03:23:00,
2013-11-08 20:28:00,29.2,18.5,30.22,NNW,345,10.0,11.0,64,0.00,,---,0.40,VWS V14.01,2013-11-09 03:28:00,
2013-11-08 20:33:00,29.2,18.9,30.23,NNW,344,9.0,10.0,65,0.00,,---,0.40,VWS V14.01,2013-11-09 03:33:00,
2013-11-08 20:38:00,29.0,18.7,30.23,NNW,338,3.0,5.0,65,0.00,,---,0.40,VWS V14.01,2013-11-09 03:38:00,
2013-11-08 20:43:00,28.9,18.6,30.23,NNW,336,0.0,1.0,65,0.00,,---,0.40,VWS V14.01,2013-11-09 03:43:00,
2013-11-08 20:48:00,28.3,18.1,30.24,NNW,336,2.0,3.0,65,0.00,,---,0.40,VWS V14.01,2013-11-09 03:48:00,
2013-11-08 20:53:00,27.9,18.0,30.24,NNW,336,0.0,0.0,66,0.00,,---,0.40,VWS V14.01,2013-11-09 03:53:00,
2013-11-08 20:58:00,27.7,18.2,30.24,NNW,336,4.0,5.0,67,0.00,,---,0.40,VWS V14.01,2013-11-09 03:58:00,
2013-11-08 21:03:00,27.8,18.6,30.24,NNW,338,1.0,5.0,68,0.00,,---,0.40,VWS V14.01,2013-11-09 04:03:00,
2013-11-08 21:08:00,27.6,18.1,30.25,NNW,338,1.0,2.0,67,0.00,,---,0.40,VWS V14.01,2013-11-09 04:08:00,
2013-11-08 21:13:00,28.1,18.2,30.25,NNW,338,2.0,2.0,66,0.00,,---,0.40,VWS V14.01,2013-11-09 04:13:00,
2013-11-08 21:18:00,28.4,18.1,30.25,NNW,338,0.0,0.0,65,0.00,,---,0.40,VWS V14.01,2013-11-09 04:18:00,
2013-11-08 21:23:00,28.3,18.1,30.25,NNW,338,2.0,2.0,65,0.00,,---,0.40,VWS V14.01,2013-11-09 04:23:00,
2013-11-08 21:28:00,28.1,18.2,30.25,NNW,338,0.0,0.0,66,0.00,,---,0.40,VWS V14.01,2013-11-09 04:28:00,
2013-11-08 21:33:00,27.9,18.4,30.25,NNW,338,7.0,7.0,67,0.00,,---,0.40,VWS V14.01,2013-11-09 04:33:00,
2013-11-08 21:38:00,27.5,18.3,30.25,NNW,334,0.0,1.0,68,0.00,,---,0.40,VWS V14.01,2013-11-09 04:38:00,
2013-11-08 21:43:00,27.2,17.7,30.26,NNW,334,2.0,3.0,67,0.00,,---,0.40,VWS V14.01,2013-11-09 04:43:00,
2013-11-08 21:48:00,27.1,18.0,30.26,NNW,333,0.0,0.0,68,0.00,,---,0.40,VWS V14.01,2013-11-09 04:48:00,
2013-11-08 21:53:00,26.9,17.8,30.26,NNW,334,0.0,0.0,68,0.00,,---,0.40,VWS V14.01,2013-11-09 04:53:00,
2013-11-08 21:58:00,26.7,17.6,30.26,NNW,334,0.0,0.0,68,0.00,,---,0.40,VWS V14.01,2013-11-09 04:58:00,
2013-11-08 22:01:00,26.7,17.9,30.27,NNW,334,1.0,2.0,69,0.00,,---,0.40,VWS V14.01,2013-11-09 05:01:00,
2013-11-08 22:03:00,26.7,17.9,30.26,NNW,334,4.0,4.0,69,0.00,,---,0.40,VWS V14.01,2013-11-09 05:03:00,
2013-11-08 22:08:00,26.9,18.1,30.27,NNW,334,1.0,3.0,69,0.00,,---,0.40,VWS V14.01,2013-11-09 05:08:00,
2013-11-08 22:13:00,26.9,18.1,30.27,NNW,334,1.0,3.0,69,0.00,,---,0.40,VWS V14.01,2013-11-09 05:13:00,
2013-11-08 22:18:00,26.9,17.8,30.27,NNW,333,2.0,3.0,68,0.00,,---,0.40,VWS V14.01,2013-11-09 05:18:00,
2013-11-08 22:23:00,26.7,17.9,30.27,NNW,334,0.0,0.0,69,0.00,,---,0.40,VWS V14.01,2013-11-09 05:23:00,
2013-11-08 22:28:00,26.3,17.5,30.28,NNW,334,3.0,4.0,69,0.00,,---,0.40,VWS V14.01,2013-11-09 05:28:00,
2013-11-08 22:33:00,26.1,17.7,30.28,NNW,334,2.0,3.0,70,0.00,,---,0.40,VWS V14.01,2013-11-09 05:33:00,
2013-11-08 22:38:00,26.1,18.0,30.28,NNW,334,0.0,0.0,71,0.00,,---,0.40,VWS V14.01,2013-11-09 05:38:00,
2013-11-08 22:43:00,26.3,18.2,30.28,NNW,334,0.0,0.0,71,0.00,,---,0.40,VWS V14.01,2013-11-09 05:43:00,
2013-11-08 22:48:00,26.4,18.3,30.28,NNW,334,2.0,2.0,71,0.00,,---,0.40,VWS V14.01,2013-11-09 05:48:00,
2013-11-08 22:53:00,26.3,17.9,30.28,NNW,334,3.0,3.0,70,0.00,,---,0.40,VWS V14.01,2013-11-09 05:53:00,
2013-11-08 22:58:00,25.9,17.8,30.28,NNW,334,5.0,5.0,71,0.00,,---,0.40,VWS V14.01,2013-11-09 05:58:00,
2013-11-08 23:03:00,25.7,17.9,30.28,NNW,334,4.0,4.0,72,0.00,,---,0.40,VWS V14.01,2013-11-09 06:03:00,
2013-11-08 23:08:00,25.8,18.0,30.28,NNW,333,2.0,4.0,72,0.00,,---,0.40,VWS V14.01,2013-11-09 06:08:00,
2013-11-08 23:13:00,25.2,17.5,30.28,NNW,334,0.0,0.0,72,0.00,,---,0.40,VWS V14.01,2013-11-09 06:13:00,
2013-11-08 23:18:00,24.7,17.3,30.28,NNW,333,0.0,0.0,73,0.00,,---,0.40,VWS V14.01,2013-11-09 06:18:00,
2013-11-08 23:23:00,24.5,17.4,30.28,NNW,333,1.0,2.0,74,0.00,,---,0.40,VWS V14.01,2013-11-09 06:23:00,
2013-11-08 23:28:00,24.8,18.0,30.28,NNW,334,5.0,6.0,75,0.00,,---,0.40,VWS V14.01,2013-11-09 06:28:00,
2013-11-08 23:33:00,24.8,17.7,30.28,NNW,334,4.0,5.0,74,0.00,,---,0.40,VWS V14.01,2013-11-09 06:33:00,
2013-11-08 23:38:00,24.7,17.6,30.29,NNW,334,0.0,2.0,74,0.00,,---,0.40,VWS V14.01,2013-11-09 06:38:00,
2013-11-08 23:43:00,24.7,17.6,30.29,NNW,334,0.0,2.0,74,0.00,,---,0.40,VWS V14.01,2013-11-09 06:43:00,
2013-11-08 23:48:00,24.5,17.4,30.29,NNW,334,0.0,0.0,74,0.00,,---,0.40,VWS V14.01,2013-11-09 06:48:00,
2013-11-08 23:53:00,24.4,17.6,30.29,NNW,334,0.0,2.0,75,0.00,,---,0.40,VWS V14.01,2013-11-09 06:53:00,
2013-11-08 23:58:00,24.4,17.3,30.28,NNW,334,0.0,0.0,74,0.00,,---,0.40,VWS V14.01,2013-11-09 06:58:00,